Location: Gülübeli Geçidi
(36.8411°N, 29.7411°E)
Time: 13:18:15
(UTC+00:00)

Spot 2 Rocket - Pass Details

Date: 15 May 2026
Orbit: 752 x 765 km, 98.3° (Epoch: 11 June)

Event Time Altitude Azimuth Distance (km) Brightness Sun altitude
Exits shadow 19:22:59 33° 206° (SSW) 1,239 4.3 -23.3°
Maximum altitude 19:24:50 50° 260° (W) 959 4.1 -23.6°
Drops below altitude 10° 19:29:42 10° 336° (NNW) 2,286 7.0 -24.2°
Sets 19:32:05 0° 342° (NNW) 3,216 7.9 -24.5°
